Home > Weather > Almaty > Past weeks

Flag for Kazakhstan Weather for the Past 2 Weeks in Almaty, Kazakhstan

Now
18 °F

Snow. Ice fog.


Feels Like: 9 °F
Forecast: 3 / 24 °F
Wind: 6 mph from Northwest

Location: Almaty Airport

Current Time: Feb 10, 2016 at 3:28:08 PM

Latest Report: Feb 10, 2016 at 3:00 PM


Visibility: 1 mi

Pressure: 30.48 "Hg (27.53 "Hg at 790m altitude)

Humidity: 86%

Dew point: 14 °F

Location of AlmatyLocation

Historic Weather in Almaty — Graph

°F

Almaty Temperature Yesterday

Maximum temperature yesterday: 41 °F (at 1:30 AM)
Minimum temperature yesterday: 23 °F (at 10:30 PM)
Average temperature yesterday: 31 °F

High & Low Weather Summary for the Past Weeks

 TemperatureHumidityPressure
High50 °F (Feb 8, 3:30 PM)100% (Jan 27, 9:30 PM)30.54 "Hg (Jan 27, 9:30 PM)
Low14 °F (Feb 4, 3:30 AM)32% (Feb 6, 4:30 PM)29.80 "Hg (Jan 26, 2:30 PM)
Average29 °F80%30.22 "Hg
* Reported Jan 26 2:00 PM — Feb 10 2:00 PM, Almaty, Weather by CustomWeather, © 2016

Note: Actual official high and low records may vary slightly from our data, if they occured in-between our weather recording intervals... More about our weather records

Advertising

Almaty Weather History for the Previous 24 Hours

 ConditionsComfort  
Time TempWeatherWind HumidityBarometerVisibility
2:00 PM
Wed, Feb 10
18 °FLight snow. Ice fog.6 mph86%30.45 "Hg1 mi
1:30 PM19 °FLight snow. Ice fog.6 mph79%30.45 "Hg2 mi
1:00 PM19 °FLight snow. Ice fog.6 mph79%30.45 "Hg3 mi
12:30 PM19 °FOvercast.6 mph79%30.42 "HgN/A
12:00 PM19 °FLight snow. Ice fog.6 mph79%30.42 "Hg3 mi
11:30 AM19 °FLight snow. Ice fog.6 mph79%30.42 "Hg2 mi
11:00 AM18 °FLight snow. Ice fog.6 mph86%30.42 "Hg2 mi
10:30 AM18 °FLight snow. Ice fog.6 mph79%30.39 "Hg2 mi
10:00 AM18 °FLight snow. Ice fog.6 mph86%30.39 "Hg2 mi
9:30 AM18 °FLight snow. Ice fog.3 mph86%30.36 "Hg1 mi
9:00 AM16 °FLight snow. Ice fog.3 mph86%30.36 "Hg1 mi
8:30 AM16 °FLight snow. Ice fog.3 mph86%30.36 "Hg1 mi
7:30 AM18 °FIce fog.6 mph86%30.33 "Hg1 mi
6:30 AM18 °FLight snow. Ice fog.3 mph86%30.30 "Hg1 mi
6:00 AM18 °FLight snow. Ice fog.3 mph93%30.30 "Hg1 mi
5:30 AM18 °FLight snow. Ice fog.3 mph93%30.30 "Hg1 mi
5:00 AM18 °FLight snow. Ice fog.3 mph93%30.27 "Hg1 mi
4:30 AM19 °FLight snow. Ice fog.6 mph86%30.27 "Hg1 mi
3:30 AM19 °FLight snow. Ice fog.3 mph93%30.27 "Hg2 mi
3:00 AM19 °FLight snow. Ice fog.3 mph93%30.27 "Hg2 mi
2:30 AM19 °FLight snow. Ice fog.3 mph93%30.24 "Hg2 mi
2:00 AM21 °FLight snow. Ice fog.3 mph86%30.24 "Hg1 mi
1:30 AM21 °FLight snow. Ice fog.6 mph93%30.24 "Hg1 mi
1:00 AM21 °FLight snow. Ice fog.3 mph93%30.24 "Hg2 mi
12:30 AM21 °FLight snow. Ice fog.3 mph93%30.24 "Hg2 mi
12:00 AM23 °FLight snow. Ice fog.6 mph93%30.24 "Hg1 mi
11:30 PM
Tue, Feb 9
23 °FLight snow. Ice fog.6 mph93%30.24 "Hg1 mi
11:00 PM23 °FLight snow. Ice fog.3 mph93%30.24 "Hg1 mi
10:30 PM23 °FLight snow. Ice fog.6 mph93%30.24 "Hg1 mi
9:30 PM25 °FLight snow. Ice fog.6 mph93%30.24 "Hg1 mi
9:00 PM25 °FLight snow. Ice fog.6 mph93%30.21 "Hg1 mi
8:30 PM27 °FLight snow. Ice fog.3 mph93%30.21 "Hg1 mi
8:00 PM27 °FLight snow. Ice fog.3 mph93%30.21 "Hg1 mi
7:30 PM27 °FLight snow. Ice fog.6 mph93%30.21 "Hg1 mi
7:00 PM27 °FLight snow. Ice fog.8 mph93%30.18 "Hg1 mi
6:30 PM28 °FLight snow. Ice fog.3 mph86%30.18 "Hg1 mi
6:00 PM28 °FLight snow. Ice fog.6 mph93%30.18 "Hg1 mi
5:30 PM28 °FIcy mix. Ice fog.6 mph93%30.15 "Hg2 mi
4:30 PM28 °FIcy mix. Ice fog.6 mph93%30.15 "Hg3 mi
4:00 PM28 °FIcy mix. Ice fog.8 mph93%30.15 "Hg1 mi
3:30 PM30 °FIce fog.3 mph93%30.12 "Hg3 mi
3:00 PM30 °FIce fog.6 mph93%30.12 "Hg2 mi
Weather by CustomWeather, © 2016

See weather overviewHow to use our weather pages